Location: Cherry Grove
(44.1968°N, 92.8624°W)
Time: 11:09:18
(UTC-05:00)

Amateur Radio Satellites - All Passes

Search period start: 20 October 2017 10:39
Search period end: 21 October 2017 10:39
Location: Cherry Grove, 44.1968°N, 92.8624°W

Satellite Date Start Highest point End Downlink Frequencies (MHz)
Time Altitude Azimuth
AO-73 20 Oct 10:41:37 10:45:06 23° 294° (WNW) 10:48:29 145.935
FO-29 20 Oct 10:42:45 10:46:11 17° 272° (W) 10:49:46 435.910
NO-84 20 Oct 10:43:52 10:47:44 84° 220° (SW) 10:51:16 435.350 FM
EO-79 20 Oct 10:53:20 10:55:07 12° 61° (ENE) 10:56:55 145.935-145.965
POLYITAN 1 20 Oct 10:57:35 10:59:46 14° 61° (ENE) 11:01:58 437.675
PRISM 20 Oct 11:00:19 11:04:18 57° 259° (WSW) 11:08:19 437.425
EO-88 20 Oct 11:00:32 11:04:05 51° 99° (E) 11:07:37 145.990 - 145.960
nSIGHT-1 20 Oct 11:00:37 11:03:47 68° 145° (SE) 11:06:58 .
ZACube-1 20 Oct 11:04:41 11:06:49 14° 299° (WNW) 11:08:57 437.345
Max Valier Satellite 20 Oct 11:10:02 11:13:43 84° 283° (WNW) 11:17:22 145.860
QB50P2 20 Oct 11:16:27 11:19:50 23° 66° (ENE) 11:23:13 145.880/145.840
NANOSAT C BR1 20 Oct 11:20:02 11:23:11 21° 65° (ENE) 11:26:22 145.865
YUBILEINY 20 Oct 11:23:56 11:32:04 43° 289° (WNW) 11:40:17 435.215
DUCHIFAT 1 20 Oct 11:30:36 11:33:56 23° 66° (ENE) 11:37:18 145.980
UNISAT 6 20 Oct 11:30:43 11:33:38 16° 270° (W) 11:36:35 437.425
ISS 20 Oct 11:33:09 11:36:24 73° 330° (NNW) 11:39:40 437.550
PCSat 20 Oct 11:35:43 11:38:11 13° 328° (NNW) 11:40:40 145.827
RS-15 20 Oct 11:44:43 11:55:27 43° 252° (WSW) 12:05:42 29.354- 29.394
TIGRISAT 20 Oct 11:46:36 11:48:36 13° 272° (W) 11:50:38 435.000
DELFI C3 20 Oct 11:49:27 11:52:38 23° 292° (WNW) 11:55:48 145.870
LO-87 20 Oct 11:50:40 11:53:46 26° 95° (E) 11:56:51 145.935 - 145.965
ESTCUBE 1 20 Oct 12:04:32 12:08:25 28° 96° (E) 12:12:15 437.505/2401.250
AIST 2D 20 Oct 12:06:33 12:09:50 36° 262° (W) 12:13:07 435.315
BEESAT 3 20 Oct 12:23:51 12:27:31 36° 117° (ESE) 12:31:13 437.485
NO-84 20 Oct 12:23:59 12:24:21 10° 239° (WSW) 12:24:45 435.350 FM
EO-79 20 Oct 12:26:02 12:30:17 73° 258° (WSW) 12:34:35 145.935-145.965
Gurwin Techsat 1B 20 Oct 12:29:22 12:31:51 13° 56° (ENE) 12:34:19 435.225
POLYITAN 1 20 Oct 12:30:46 12:35:01 65° 258° (WSW) 12:39:18 437.675
M-CUBED/EXP-1 PRIME 20 Oct 12:35:37 12:37:26 14° 60° (ENE) 12:39:13 437.505
EO-88 20 Oct 12:35:49 12:37:18 12° 297° (WNW) 12:38:47 145.990 - 145.960
nSIGHT-1 20 Oct 12:37:27 12:40:16 28° 344° (NNW) 12:43:07 .
SPROUT 20 Oct 12:46:23 12:49:33 20° 93° (E) 12:52:41 437.525
QB50P2 20 Oct 12:51:31 12:55:25 35° 263° (W) 12:59:22 145.880/145.840
NANOSAT C BR1 20 Oct 12:54:38 12:58:38 39° 262° (W) 13:02:40 145.865
DUCHIFAT 1 20 Oct 13:05:32 13:09:25 34° 263° (W) 13:13:19 145.980
ISS 20 Oct 13:10:32 13:13:16 24° 350° (N) 13:16:01 437.550
BUGSAT 1 20 Oct 13:12:44 13:16:54 76° 76° (ENE) 13:21:10 437.445
AO-7 20 Oct 13:18:57 13:23:32 16° 43° (NE) 13:28:06 .
LO-87 20 Oct 13:24:14 13:27:03 21° 292° (WNW) 13:29:51 145.935 - 145.965
AO-85 20 Oct 13:28:39 13:32:09 33° 116° (ESE) 13:35:43 145.980
VELOX 1 20 Oct 13:30:25 13:34:35 39° 98° (E) 13:38:44 145.980
Oscar 19 20 Oct 13:34:12 13:39:18 64° 72° (ENE) 13:44:25 437.125/150
ESTCUBE 1 20 Oct 13:41:16 13:45:10 30° 292° (WNW) 13:49:04 437.505/2401.250
BEESAT 2 20 Oct 13:44:06 13:48:06 77° 124° (ESE) 13:52:10 435.950
BEESAT 3 20 Oct 14:01:43 14:05:08 26° 315° (NW) 14:08:35 437.485
Gurwin Techsat 1B 20 Oct 14:05:40 14:10:58 85° 74° (ENE) 14:16:19 435.225
50 SAT 20 Oct 14:06:12 14:08:58 24° 96° (E) 14:11:42 437.505
M-CUBED/EXP-1 PRIME 20 Oct 14:08:28 14:11:38 36° 256° (WSW) 14:14:42 437.505
ITAMSAT 1 20 Oct 14:11:24 14:12:44 11° 54° (NE) 14:14:05 435.822/435.867
nSIGHT-1 20 Oct 14:14:42 14:17:14 21° 4° (N) 14:19:48 .
SPROUT 20 Oct 14:21:34 14:25:36 40° 290° (WNW) 14:29:35 437.525
DX 1 20 Oct 14:36:29 14:40:44 48° 100° (E) 14:44:58 434.975-435.025
ISS 20 Oct 14:47:43 14:50:27 24° 10° (N) 14:53:12 437.550
BUGSAT 1 20 Oct 14:52:30 14:52:47 10° 272° (W) 14:53:05 437.445
SO-50 20 Oct 14:55:33 14:59:26 26° 42° (NE) 15:03:21 436.795
UKube-1 20 Oct 15:00:22 15:04:38 55° 101° (E) 15:08:53 .
AO-7 20 Oct 15:06:34 15:14:40 61° 65° (ENE) 15:22:47 .
VELOX 1 20 Oct 15:07:21 15:10:47 22° 295° (WNW) 15:14:14 145.980
AO-85 20 Oct 15:09:14 15:12:33 26° 316° (NW) 15:15:59 145.980
Oscar 19 20 Oct 15:15:47 15:19:04 17° 269° (W) 15:22:21 437.125/150
BEESAT 2 20 Oct 15:23:47 15:26:20 16° 322° (NW) 15:28:55 435.950
50 SAT 20 Oct 15:38:44 15:41:09 19° 292° (WNW) 15:43:32 437.505
MOZHAYETS 4 20 Oct 15:39:27 15:43:04 23° 93° (E) 15:46:39
ITAMSAT 1 20 Oct 15:46:05 15:51:15 71° 73° (ENE) 15:56:27 435.822/435.867
Gurwin Techsat 1B 20 Oct 15:49:17 15:51:36 13° 272° (W) 15:53:56 435.225
nSIGHT-1 20 Oct 15:50:57 15:54:04 46° 25° (NNE) 15:57:10 .
ITUPSAT 1 20 Oct 16:09:18 16:13:47 38° 98° (E) 16:18:13 437.325
DX 1 20 Oct 16:13:34 16:16:33 18° 297° (WNW) 16:19:33 434.975-435.025
ISS 20 Oct 16:24:03 16:27:20 72° 28° (NNE) 16:30:35 437.550
BEESAT 20 Oct 16:24:34 16:29:17 55° 101° (E) 16:33:58 436.000
DOVE 4 20 Oct 16:31:24 16:34:35 21° 64° (ENE) 16:37:51 437.250
SO-50 20 Oct 16:35:40 16:40:07 48° 241° (WSW) 16:44:36 436.795
UKube-1 20 Oct 16:37:34 16:40:13 16° 298° (WNW) 16:42:51 .
PCSat 20 Oct 16:51:23 16:56:12 31° 47° (NE) 17:00:59 145.827
AO-7 20 Oct 17:00:39 17:07:51 32° 264° (W) 17:15:07 .
KKS-1 20 Oct 17:07:16 17:08:38 11° 89° (E) 17:10:00 437.445
MOZHAYETS 4 20 Oct 17:16:06 17:20:21 38° 290° (WNW) 17:24:34
KAITUO 1B 20 Oct 17:23:22 17:24:40 12° 63° (ENE) 17:25:59 145.475/437.950
XW-2F 20 Oct 17:24:27 17:26:42 15° 65° (ENE) 17:28:57 145.980 - 146.000
CUBESAT XI-V 20 Oct 17:27:22 17:31:57 65° 101° (ESE) 17:36:31 437.345
nSIGHT-1 20 Oct 17:27:27 17:30:14 27° 222° (SW) 17:32:59 .
ITAMSAT 1 20 Oct 17:28:15 17:31:14 15° 270° (W) 17:34:15 435.822/435.867
LilacSat-2 20 Oct 17:29:24 17:32:14 20° 67° (ENE) 17:35:03 437.200
XW-2D 20 Oct 17:36:08 17:39:08 22° 68° (ENE) 17:42:08 145.860 - 145.880
NUDT-PHONESAT 20 Oct 17:36:12 17:38:26 15° 65° (ENE) 17:40:41 437.300
ITUPSAT 1 20 Oct 17:47:28 17:51:25 26° 295° (WNW) 17:55:20 437.325
XW-2B 20 Oct 17:49:12 17:52:32 30° 70° (ENE) 17:55:51 145.730 - 145.750
CUTE-I 20 Oct 17:56:40 18:01:35 40° 68° (ENE) 18:06:33 437.470
ISS 20 Oct 18:01:20 18:03:28 16° 226° (SW) 18:05:37 437.550
BEESAT 20 Oct 18:03:19 18:06:38 19° 298° (WNW) 18:09:56 436.000
DOVE 4 20 Oct 18:08:08 18:12:01 37° 263° (W) 18:16:06 437.250
XW-2C 20 Oct 18:11:59 18:15:43 57° 75° (ENE) 18:19:27 145.795 - 145.815
HO-68 20 Oct 18:34:19 18:40:59 44° 64° (ENE) 18:47:43 435.675
CUBEBUG 2 20 Oct 18:34:22 18:37:22 17° 62° (ENE) 18:40:24 437.445
PCSat 20 Oct 18:34:36 18:39:47 46° 246° (WSW) 18:44:55 145.827
KKS-1 20 Oct 18:41:13 18:45:42 76° 286° (WNW) 18:50:10 437.445
KAITUO 1B 20 Oct 18:54:30 18:58:11 58° 259° (W) 19:01:52 145.475/437.950
XW-2F 20 Oct 18:56:52 19:00:28 42° 261° (W) 19:04:04 145.980 - 146.000
LilacSat-2 20 Oct 19:02:51 19:06:17 32° 263° (W) 19:09:45 437.200
XW-2A 20 Oct 19:05:47 19:07:52 15° 66° (ENE) 19:09:56 145.665 - 145.685
CUTE 1.7 + AOD 2 20 Oct 19:06:00 19:10:05 50° 73° (ENE) 19:14:11 437.475
CUBESAT XI-V 20 Oct 19:06:10 19:08:47 15° 299° (WNW) 19:11:25 437.345
NUDT-PHONESAT 20 Oct 19:08:27 19:11:58 40° 262° (W) 19:15:30 437.300
XW-2D 20 Oct 19:09:54 19:13:10 27° 264° (W) 19:16:28 145.860 - 145.880
UWE-3 20 Oct 19:11:11 19:14:47 23° 65° (ENE) 19:18:25 435.000/436.395/437.385
SEEDS 20 Oct 19:12:53 19:16:42 36° 70° (ENE) 19:20:33 437.485
STARS 20 Oct 19:13:14 19:17:42 84° 283° (WNW) 19:22:08 437.465
XW-2B 20 Oct 19:23:51 19:26:43 20° 266° (W) 19:29:37 145.730 - 145.750
Oscar 11 20 Oct 19:27:34 19:28:27 11° 59° (ENE) 19:29:21 .
YUBILEINY 20 Oct 19:35:17 19:42:12 25° 63° (ENE) 19:49:05 435.215
AAUSAT CUBESAT 2 20 Oct 19:36:12 19:39:44 29° 69° (ENE) 19:43:19 437.432
CUTE-I 20 Oct 19:37:11 19:41:43 29° 265° (W) 19:46:19 437.470
XW-2C 20 Oct 19:49:11 19:50:15 11° 271° (W) 19:51:17 145.795 - 145.815
AO-73 20 Oct 20:01:22 20:05:29 34° 69° (ENE) 20:09:35 145.935
STRAND 1 20 Oct 20:01:54 20:06:28 31° 96° (E) 20:10:59 437.568
CUBEBUG 2 20 Oct 20:08:50 20:13:28 61° 260° (W) 20:18:12 437.445
AO-85 20 Oct 20:18:40 20:20:03 11° 31° (NNE) 20:21:28 145.980
HO-68 20 Oct 20:22:08 20:28:45 39° 263° (W) 20:35:26 435.675
ZACube-1 20 Oct 20:23:08 20:27:39 63° 74° (ENE) 20:32:12 437.345
BEESAT 2 20 Oct 20:24:01 20:25:50 13° 34° (NE) 20:27:37 435.950
XW-2A 20 Oct 20:37:11 20:40:17 33° 262° (W) 20:43:25 145.665 - 145.685
BEESAT 3 20 Oct 20:38:50 20:42:32 35° 48° (NE) 20:46:10 437.485
CUTE 1.7 + AOD 2 20 Oct 20:43:43 20:46:12 15° 269° (W) 20:48:42 437.475
UWE-3 20 Oct 20:46:32 20:50:57 43° 262° (W) 20:55:25 435.000/436.395/437.385
O/OREOS (USA 219) 20 Oct 20:46:55 20:51:06 37° 106° (ESE) 20:55:21 437.305
SEEDS 20 Oct 20:49:24 20:52:30 20° 267° (W) 20:55:37 437.485
STARS 20 Oct 20:52:45 20:53:16 10° 303° (WNW) 20:53:47 437.465
Oscar 11 20 Oct 20:59:33 21:03:53 88° 252° (WSW) 21:08:15 .
DELFI C3 20 Oct 21:01:31 21:04:27 21° 67° (ENE) 21:07:23 145.870
AAUSAT CUBESAT 2 20 Oct 21:11:49 21:15:11 24° 266° (W) 21:18:34 437.432
YUBILEINY 20 Oct 21:31:13 21:40:01 80° 265° (W) 21:48:50 435.215
AO-73 20 Oct 21:37:53 21:41:43 26° 266° (W) 21:45:34 145.935
EO-88 20 Oct 21:39:33 21:42:41 27° 70° (ENE) 21:45:48 145.990 - 145.960
STRAND 1 20 Oct 21:40:59 21:45:39 36° 293° (WNW) 21:50:19 437.568
UNISAT 6 20 Oct 21:44:50 21:45:59 11° 87° (E) 21:47:08 437.425
FO-29 20 Oct 21:45:34 21:52:20 54° 100° (E) 21:59:46 435.910
Max Valier Satellite 20 Oct 21:49:44 21:53:21 50° 74° (ENE) 21:56:59 145.860
AO-85 20 Oct 21:57:00 22:01:24 51° 51° (NE) 22:06:08 145.980
TIGRISAT 20 Oct 21:58:23 22:00:50 14° 89° (E) 22:03:16 435.000
BEESAT 2 20 Oct 22:00:14 22:04:18 73° 55° (NE) 22:08:17 435.950
ZACube-1 20 Oct 22:01:50 22:04:20 14° 271° (W) 22:06:48 437.345
BEESAT 3 20 Oct 22:16:44 22:19:55 23° 246° (WSW) 22:23:02 437.485
O/OREOS (USA 219) 20 Oct 22:26:47 22:30:37 26° 305° (NW) 22:34:29 437.305
LO-87 20 Oct 22:28:54 22:30:57 15° 65° (ENE) 22:33:00 145.935 - 145.965
DELFI C3 20 Oct 22:35:29 22:39:00 32° 263° (W) 22:42:33 145.870
PRISM 20 Oct 22:40:45 22:43:25 17° 92° (E) 22:46:05 437.425
ESTCUBE 1 20 Oct 23:05:20 23:09:17 31° 68° (ENE) 23:13:15 437.505/2401.250
EO-88 20 Oct 23:13:33 23:16:19 20° 266° (W) 23:19:07 145.990 - 145.960
UNISAT 6 20 Oct 23:18:40 23:23:18 81° 286° (WNW) 23:27:49 437.425
Max Valier Satellite 20 Oct 23:26:02 23:27:27 12° 270° (W) 23:28:54 145.860
YUBILEINY 20 Oct 23:30:26 23:35:19 16° 286° (WNW) 23:40:13 435.215
AIST 2D 20 Oct 23:30:50 23:32:37 13° 91° (E) 23:34:23 435.315
FO-29 20 Oct 23:31:09 23:37:07 34° 296° (WNW) 23:43:36 435.910
TIGRISAT 20 Oct 23:33:23 23:37:58 62° 287° (WNW) 23:42:25 435.000
AO-85 20 Oct 23:38:00 23:41:34 22° 247° (WSW) 23:45:19 145.980
BEESAT 2 20 Oct 23:40:07 23:41:25 11° 252° (WSW) 23:42:41 435.950
SPROUT 20 Oct 23:41:15 23:44:17 19° 64° (ENE) 23:47:20 437.525
RS-15 20 Oct 23:57:26 00:07:41 33° 104° (ESE) 00:17:55 29.354- 29.394
LO-87 21 Oct 00:00:36 00:04:00 40° 262° (W) 00:07:27 145.935 - 145.965
EO-79 21 Oct 00:10:09 00:12:51 16° 91° (E) 00:15:32 145.935-145.965
POLYITAN 1 21 Oct 00:14:49 00:17:48 18° 92° (E) 00:20:45 437.675
PRISM 21 Oct 00:14:58 00:18:54 44° 289° (WNW) 00:22:50 437.425
VELOX 1 21 Oct 00:28:50 00:32:56 41° 70° (ENE) 00:37:05 145.980
QB50P2 21 Oct 00:34:28 00:38:21 32° 97° (E) 00:42:09 145.880/145.840
NANOSAT C BR1 21 Oct 00:37:16 00:40:57 28° 95° (E) 00:44:35 145.865
50 SAT 21 Oct 00:37:50 00:38:51 11° 64° (ENE) 00:39:52 437.505
ESTCUBE 1 21 Oct 00:42:15 00:46:05 27° 265° (W) 00:49:54 437.505/2401.250
DUCHIFAT 1 21 Oct 00:47:36 00:51:24 31° 96° (E) 00:55:10 145.980
UNISAT 6 21 Oct 00:58:37 00:59:10 10° 303° (WNW) 00:59:42 437.425
AIST 2D 21 Oct 01:02:44 01:05:58 37° 288° (WNW) 01:09:10 435.315
SPROUT 21 Oct 01:15:46 01:19:51 43° 261° (W) 01:23:59 437.525
DX 1 21 Oct 01:33:09 01:37:20 50° 71° (ENE) 01:41:32 434.975-435.025
EO-79 21 Oct 01:44:45 01:48:52 47° 288° (WNW) 01:52:56 145.935-145.965
Oscar 19 21 Oct 01:45:04 01:48:44 19° 92° (E) 01:52:22 437.125/150
POLYITAN 1 21 Oct 01:49:43 01:53:46 42° 289° (WNW) 01:57:46 437.675
UKube-1 21 Oct 01:55:53 02:00:04 57° 73° (ENE) 02:04:19 .
BEESAT 21 Oct 01:59:07 01:59:57 10° 56° (NE) 02:00:47 436.000
VELOX 1 21 Oct 02:06:21 02:09:33 20° 267° (W) 02:12:46 145.980
RS-15 21 Oct 02:06:41 02:19:03 80° 306° (NW) 02:31:24 29.354- 29.394
50 SAT 21 Oct 02:07:38 02:10:46 44° 261° (W) 02:13:55 437.505
QB50P2 21 Oct 02:10:31 02:13:58 24° 294° (WNW) 02:17:24 145.880/145.840
NANOSAT C BR1 21 Oct 02:12:58 02:16:35 28° 293° (WNW) 02:20:11 145.865
Gurwin Techsat 1B 21 Oct 02:20:41 02:25:19 30° 95° (E) 02:29:55 435.225
DUCHIFAT 1 21 Oct 02:23:28 02:26:55 25° 294° (WNW) 02:30:21 145.980
BUGSAT 1 21 Oct 02:28:02 02:32:17 78° 287° (WNW) 02:36:28 437.445
MOZHAYETS 4 21 Oct 02:42:34 02:46:27 27° 66° (ENE) 02:50:20
AO-7 21 Oct 03:08:22 03:13:02 16° 88° (E) 03:17:39 .
DX 1 21 Oct 03:11:08 03:13:48 16° 268° (W) 03:16:28 434.975-435.025
ITUPSAT 1 21 Oct 03:17:10 03:21:50 54° 71° (ENE) 03:26:33 437.325
M-CUBED/EXP-1 PRIME 21 Oct 03:18:05 03:21:39 80° 289° (WNW) 03:25:27 437.505
Oscar 19 21 Oct 03:23:23 03:28:23 55° 289° (WNW) 03:33:21 437.125/150
BEESAT 21 Oct 03:32:06 03:36:53 76° 73° (ENE) 03:41:41 436.000
UKube-1 21 Oct 03:34:10 03:36:27 14° 269° (W) 03:38:44 .
NO-84 21 Oct 03:36:05 03:40:17 55° 136° (SE) 03:44:26 435.350 FM
ITAMSAT 1 21 Oct 03:58:04 04:02:06 22° 93° (E) 04:06:05 435.822/435.867
Gurwin Techsat 1B 21 Oct 04:00:25 04:05:19 39° 293° (WNW) 04:10:13 435.225
KKS-1 21 Oct 04:06:28 04:08:46 14° 60° (ENE) 04:11:05 437.445
MOZHAYETS 4 21 Oct 04:19:15 04:23:28 34° 263° (W) 04:27:42
RS-15 21 Oct 04:22:48 04:33:46 35° 335° (NNW) 04:44:35 29.354- 29.394
CUBESAT XI-V 21 Oct 04:31:44 04:36:21 75° 76° (ENE) 04:40:59 437.345
STARS 21 Oct 04:37:47 04:39:32 12° 59° (ENE) 04:41:17 437.465
ITUPSAT 1 21 Oct 04:56:42 04:59:58 18° 268° (W) 05:03:16 437.325
AO-7 21 Oct 04:58:43 05:07:04 78° 107° (ESE) 05:15:24 .
BEESAT 21 Oct 05:13:11 05:15:11 12° 271° (W) 05:17:12 436.000
NO-84 21 Oct 05:13:57 05:17:53 34° 334° (NNW) 05:21:43 435.350 FM
O/OREOS (USA 219) 21 Oct 05:17:14 05:19:33 14° 48° (NE) 05:21:51 437.305
ITAMSAT 1 21 Oct 05:36:45 05:41:49 51° 291° (WNW) 05:46:52 435.822/435.867
KKS-1 21 Oct 05:40:21 05:44:46 68° 258° (WSW) 05:49:13 437.445
DOVE 4 21 Oct 06:03:52 06:08:45 50° 99° (E) 06:13:48 437.250
STARS 21 Oct 06:10:50 06:15:13 79° 256° (WSW) 06:19:39 437.465
CUBESAT XI-V 21 Oct 06:12:33 06:14:15 12° 272° (W) 06:15:56 437.345
CUTE-I 21 Oct 06:13:32 06:16:11 14° 88° (E) 06:18:49 437.470
KAITUO 1B 21 Oct 06:25:43 06:27:02 12° 90° (E) 06:28:21 145.475/437.950
XW-2F 21 Oct 06:28:00 06:30:24 16° 92° (E) 06:32:46 145.980 - 146.000
LilacSat-2 21 Oct 06:34:27 06:37:27 22° 94° (E) 06:40:26 437.200
NUDT-PHONESAT 21 Oct 06:37:45 06:40:00 15° 92° (E) 06:42:14 437.300
XW-2D 21 Oct 06:40:28 06:43:36 25° 95° (E) 06:46:43 145.860 - 145.880
RS-15 21 Oct 06:40:55 06:51:05 29° 10° (N) 07:00:54 29.354- 29.394
SO-50 21 Oct 06:51:14 06:55:20 36° 116° (ESE) 06:59:27 436.795
AO-7 21 Oct 06:52:25 06:59:04 28° 307° (NW) 07:05:43 .
NO-84 21 Oct 06:53:18 06:56:15 18° 354° (N) 06:59:06 435.350 FM
XW-2B 21 Oct 06:53:43 06:57:09 34° 97° (E) 07:00:35 145.730 - 145.750
O/OREOS (USA 219) 21 Oct 06:55:01 06:59:40 87° 242° (WSW) 07:04:14 437.305
XW-2C 21 Oct 07:16:48 07:20:34 69° 102° (ESE) 07:24:16 145.795 - 145.815
STRAND 1 21 Oct 07:19:02 07:23:59 51° 70° (ENE) 07:28:59 437.568
PCSat 21 Oct 07:36:13 07:39:45 18° 105° (ESE) 07:43:18 145.827
DOVE 4 21 Oct 07:42:17 07:46:06 23° 295° (WNW) 07:50:03 437.250
HO-68 21 Oct 07:47:28 07:54:10 39° 97° (E) 08:00:48 435.675
CUTE-I 21 Oct 07:51:27 07:56:51 82° 286° (WNW) 08:02:14 437.470
KAITUO 1B 21 Oct 07:57:44 08:01:19 50° 286° (WNW) 08:04:53 145.475/437.950
XW-2A 21 Oct 07:58:26 07:59:45 12° 91° (E) 08:01:04 145.665 - 145.685
CUBEBUG 2 21 Oct 07:58:36 08:02:32 26° 94° (E) 08:06:19 437.445
XW-2F 21 Oct 08:01:12 08:04:38 35° 289° (WNW) 08:08:03 145.980 - 146.000
FO-29 21 Oct 08:01:43 08:05:50 23° 60° (ENE) 08:10:12 435.910
LilacSat-2 21 Oct 08:08:31 08:11:42 27° 291° (WNW) 08:14:53 437.200
NUDT-PHONESAT 21 Oct 08:10:37 08:14:00 36° 289° (WNW) 08:17:21 437.300
ZACube-1 21 Oct 08:12:47 08:13:38 10° 87° (E) 08:14:31 437.345
XW-2D 21 Oct 08:14:39 08:17:42 24° 292° (WNW) 08:20:42 145.860 - 145.880
CUTE 1.7 + AOD 2 21 Oct 08:24:40 08:28:53 83° 102° (ESE) 08:33:05 437.475
XW-2B 21 Oct 08:28:31 08:31:06 18° 294° (WNW) 08:33:40 145.730 - 145.750
SEEDS 21 Oct 08:30:03 08:34:10 58° 100° (E) 08:38:16 437.485
NO-84 21 Oct 08:31:33 08:34:48 22° 16° (NNE) 08:37:52 435.350 FM
SO-50 21 Oct 08:31:49 08:35:49 31° 316° (NW) 08:39:50 436.795
UWE-3 21 Oct 08:34:38 08:38:47 35° 96° (E) 08:42:47 435.000/436.395/437.385
YUBILEINY 21 Oct 08:39:39 08:46:17 25° 80° (E) 08:52:56 435.215
UNISAT 6 21 Oct 08:44:33 08:46:48 13° 60° (ENE) 08:49:03 437.425
Oscar 11 21 Oct 08:46:25 08:48:57 15° 90° (E) 08:51:30 .
AAUSAT CUBESAT 2 21 Oct 08:51:13 08:55:11 43° 98° (E) 08:59:07 437.432
XW-2C 21 Oct 08:53:53 08:54:10 10° 298° (WNW) 08:54:28 145.795 - 145.815
RS-15 21 Oct 08:55:23 09:07:10 54° 42° (NE) 09:18:17 29.354- 29.394
TIGRISAT 21 Oct 08:58:15 09:01:13 17° 62° (ENE) 09:04:10 435.000
STRAND 1 21 Oct 08:59:36 09:03:27 21° 268° (W) 09:07:20 437.568
PCSat 21 Oct 09:17:09 09:22:33 70° 303° (WNW) 09:28:00 145.827
AO-73 21 Oct 09:23:28 09:27:46 55° 100° (E) 09:31:55 145.935
XW-2A 21 Oct 09:29:31 09:32:40 38° 288° (WNW) 09:35:46 145.665 - 145.685
PRISM 21 Oct 09:31:52 09:34:14 15° 63° (ENE) 09:36:37 437.425
CUTE-I 21 Oct 09:33:39 09:36:03 13° 304° (NW) 09:38:28 437.470
CUBEBUG 2 21 Oct 09:34:59 09:39:10 33° 292° (WNW) 09:43:13 437.445
HO-68 21 Oct 09:35:10 09:41:55 45° 296° (WNW) 09:48:38 435.675
FO-29 21 Oct 09:45:27 09:50:31 51° 261° (W) 09:56:02 435.910
ZACube-1 21 Oct 09:46:06 09:50:30 75° 285° (WNW) 09:54:45 437.345
CUTE 1.7 + AOD 2 21 Oct 10:03:12 10:04:04 11° 300° (WNW) 10:04:54 437.475
nSIGHT-1 21 Oct 10:05:49 10:08:45 34° 140° (SE) 10:11:41 .
SEEDS 21 Oct 10:07:09 10:09:22 14° 297° (WNW) 10:11:36 437.485
NO-84 21 Oct 10:08:50 10:12:45 76° 36° (NE) 10:16:20 435.350 FM
DELFI C3 21 Oct 10:10:27 10:13:48 26° 95° (E) 10:17:09 145.870
UWE-3 21 Oct 10:11:24 10:15:03 24° 294° (WNW) 10:18:36 435.000/436.395/437.385
UNISAT 6 21 Oct 10:18:11 10:22:50 79° 258° (WSW) 10:27:34 437.425
Oscar 11 21 Oct 10:21:13 10:25:24 51° 287° (WNW) 10:29:34 .
AAUSAT CUBESAT 2 21 Oct 10:27:31 10:30:18 18° 295° (WNW) 10:33:05 437.432
